Time,TemperatureF,DewpointF,PressureIn,WindDirection,WindDirectionDegrees,WindSpeedMPH,WindSpeedGustMPH,Humidity,HourlyPrecipIn,Conditions,Clouds,dailyrainin,SoftwareType,DateUTC
2013-03-28 00:09:00,57.4,51.9,30.06,South,180,2.7,-999.0,82,-99.99,,,0.00,Acu-Link.com,2013-03-28 05:09:00,
2013-03-28 00:25:00,57.2,52.1,30.06,South,180,5.8,-999.0,83,-99.99,,,0.00,Acu-Link.com,2013-03-28 05:25:00,
2013-03-28 00:40:00,56.8,52.1,30.06,SSW,202,4.7,-999.0,84,-99.99,,,0.00,Acu-Link.com,2013-03-28 05:40:00,
2013-03-28 00:55:00,56.8,52.4,30.06,SSW,202,5.8,-999.0,85,-99.99,,,0.00,Acu-Link.com,2013-03-28 05:55:00,
2013-03-28 01:10:00,56.3,52.5,30.06,South,180,3.8,-999.0,87,-99.99,,,0.00,Acu-Link.com,2013-03-28 06:10:00,
2013-03-28 01:25:00,55.6,52.4,30.05,South,180,2.7,-999.0,89,-99.99,,,0.00,Acu-Link.com,2013-03-28 06:25:00,
2013-03-28 01:56:00,54.1,52.2,30.05,SE,135,3.8,-999.0,93,-99.99,,,0.00,Acu-Link.com,2013-03-28 06:56:00,
2013-03-28 02:11:00,53.6,52.2,30.05,South,180,1.6,-999.0,95,-99.99,,,0.00,Acu-Link.com,2013-03-28 07:11:00,
2013-03-28 02:26:00,52.5,51.7,30.05,SSE,157,1.6,-999.0,97,-99.99,,,0.00,Acu-Link.com,2013-03-28 07:26:00,
2013-03-28 02:42:00,51.4,50.9,30.05,SSE,157,1.6,-999.0,98,-99.99,,,0.00,Acu-Link.com,2013-03-28 07:42:00,
2013-03-28 02:57:00,50.7,50.2,30.04,SSE,157,0.0,-999.0,98,-99.99,,,0.00,Acu-Link.com,2013-03-28 07:57:00,
2013-03-28 03:12:00,50.2,49.6,30.04,SSE,157,0.0,-999.0,98,-99.99,,,0.00,Acu-Link.com,2013-03-28 08:12:00,
2013-03-28 03:28:00,49.6,49.1,30.04,SSE,157,0.0,-999.0,98,-99.99,,,0.00,Acu-Link.com,2013-03-28 08:28:00,
2013-03-28 03:43:00,48.6,48.0,30.05,SSE,157,0.0,-999.0,98,-99.99,,,0.00,Acu-Link.com,2013-03-28 08:43:00,
2013-03-28 03:58:00,47.8,47.3,30.04,SE,135,1.6,-999.0,98,-99.99,,,0.00,Acu-Link.com,2013-03-28 08:58:00,
2013-03-28 04:13:00,47.8,47.3,30.03,SSE,157,0.0,-999.0,98,-99.99,,,0.00,Acu-Link.com,2013-03-28 09:13:00,
2013-03-28 04:28:00,47.8,47.3,30.04,SE,135,0.0,-999.0,98,-99.99,,,0.00,Acu-Link.com,2013-03-28 09:28:00,
2013-03-28 04:44:00,47.8,47.3,30.03,SE,135,1.6,-999.0,98,-99.99,,,0.00,Acu-Link.com,2013-03-28 09:44:00,
2013-03-28 04:59:00,48.0,47.5,30.03,SSE,157,1.1,-999.0,98,-99.99,,,0.00,Acu-Link.com,2013-03-28 09:59:00,
2013-03-28 05:14:00,48.2,47.7,30.04,South,180,1.1,-999.0,98,-99.99,,,0.00,Acu-Link.com,2013-03-28 10:14:00,
2013-03-28 05:29:00,48.6,48.0,30.04,ESE,112,2.7,-999.0,98,-99.99,,,0.00,Acu-Link.com,2013-03-28 10:29:00,
2013-03-28 05:44:00,49.1,48.6,30.04,SSE,157,3.8,-999.0,98,-99.99,,,0.00,Acu-Link.com,2013-03-28 10:44:00,
2013-03-28 06:00:00,49.3,48.7,30.04,SE,135,2.2,-999.0,98,-99.99,,,0.00,Acu-Link.com,2013-03-28 11:00:00,
2013-03-28 06:15:00,49.5,48.9,30.04,SE,135,2.2,-999.0,98,-99.99,,,0.00,Acu-Link.com,2013-03-28 11:15:00,
2013-03-28 06:30:00,49.3,48.7,30.04,SE,135,1.6,-999.0,98,-99.99,,,0.00,Acu-Link.com,2013-03-28 11:30:00,
2013-03-28 06:45:00,49.1,48.6,30.04,SE,135,2.7,-999.0,98,-99.99,,,0.00,Acu-Link.com,2013-03-28 11:45:00,
2013-03-28 07:00:00,48.9,48.4,30.04,SSE,157,1.6,-999.0,98,-99.99,,,0.00,Acu-Link.com,2013-03-28 12:00:00,
2013-03-28 07:16:00,48.6,48.0,30.05,SSE,157,1.1,-999.0,98,-99.99,,,0.00,Acu-Link.com,2013-03-28 12:16:00,
2013-03-28 08:01:00,50.9,50.4,30.06,ESE,112,1.6,-999.0,98,-99.99,,,0.00,Acu-Link.com,2013-03-28 13:01:00,
2013-03-28 08:16:00,52.5,52.0,30.07,SSE,157,3.1,-999.0,98,-99.99,,,0.00,Acu-Link.com,2013-03-28 13:16:00,
2013-03-28 08:32:00,54.0,53.4,30.07,SSE,157,4.7,-999.0,98,-99.99,,,0.00,Acu-Link.com,2013-03-28 13:32:00,
2013-03-28 08:47:00,55.4,54.8,30.07,South,180,6.7,-999.0,98,-99.99,,,0.00,Acu-Link.com,2013-03-28 13:47:00,
2013-03-28 09:02:00,56.3,55.7,30.08,SSE,157,6.3,-999.0,98,-99.99,,,0.00,Acu-Link.com,2013-03-28 14:02:00,
2013-03-28 09:17:00,57.7,57.2,30.08,SE,135,2.7,-999.0,98,-99.99,,,0.00,Acu-Link.com,2013-03-28 14:17:00,
2013-03-28 09:33:00,59.0,58.4,30.08,SE,135,4.7,-999.0,98,-99.99,,,0.00,Acu-Link.com,2013-03-28 14:33:00,
2013-03-28 09:48:00,61.5,60.9,30.08,ESE,112,4.3,-999.0,98,-99.99,,,0.00,Acu-Link.com,2013-03-28 14:48:00,
2013-03-28 10:03:00,63.1,61.4,30.08,SSE,157,3.8,-999.0,94,-99.99,,,0.00,Acu-Link.com,2013-03-28 15:03:00,
2013-03-28 10:18:00,62.1,61.2,30.08,SSE,157,4.7,-999.0,97,-99.99,,,0.00,Acu-Link.com,2013-03-28 15:18:00,
2013-03-28 10:33:00,61.2,60.6,30.09,South,180,9.8,-999.0,98,-99.99,,,0.00,Acu-Link.com,2013-03-28 15:33:00,
2013-03-28 10:48:00,62.1,61.5,30.08,SSE,157,4.7,-999.0,98,-99.99,,,0.00,Acu-Link.com,2013-03-28 15:48:00,
2013-03-28 11:04:00,63.3,61.3,30.09,South,180,8.3,-999.0,93,-99.99,,,0.00,Acu-Link.com,2013-03-28 16:04:00,
2013-03-28 11:19:00,63.9,61.5,30.08,SE,135,6.3,-999.0,92,-99.99,,,0.00,Acu-Link.com,2013-03-28 16:19:00,
2013-03-28 11:34:00,64.9,61.9,30.09,South,180,5.8,-999.0,90,-99.99,,,0.00,Acu-Link.com,2013-03-28 16:34:00,
2013-03-28 11:49:00,66.6,61.9,30.08,SSE,157,4.7,-999.0,85,-99.99,,,0.00,Acu-Link.com,2013-03-28 16:49:00,
2013-03-28 12:04:00,66.9,61.9,30.07,ESE,112,3.1,-999.0,84,-99.99,,,0.00,Acu-Link.com,2013-03-28 17:04:00,
2013-03-28 12:20:00,67.1,61.8,30.07,SSW,202,13.0,-999.0,83,-99.99,,,0.00,Acu-Link.com,2013-03-28 17:20:00,
2013-03-28 12:35:00,67.6,61.9,30.07,South,180,7.8,-999.0,82,-99.99,,,0.00,Acu-Link.com,2013-03-28 17:35:00,
2013-03-28 12:50:00,66.9,61.9,30.07,SSE,157,4.3,-999.0,84,-99.99,,,0.00,Acu-Link.com,2013-03-28 17:50:00,
2013-03-28 13:05:00,67.1,61.8,30.07,South,180,6.3,-999.0,83,-99.99,,,0.00,Acu-Link.com,2013-03-28 18:05:00,
2013-03-28 13:20:00,68.0,61.6,30.07,South,180,4.7,-999.0,80,-99.99,,,0.00,Acu-Link.com,2013-03-28 18:20:00,
2013-03-28 13:21:00,68.0,61.6,30.07,South,180,4.7,-999.0,80,-99.99,,,0.00,Acu-Link.com,2013-03-28 18:21:00,
2013-03-28 14:06:00,69.6,62.1,30.04,South,180,8.3,-999.0,77,-99.99,,,0.00,Acu-Link.com,2013-03-28 19:06:00,
2013-03-28 14:21:00,71.6,62.9,30.04,SSE,157,4.3,-999.0,74,-99.99,,,0.00,Acu-Link.com,2013-03-28 19:21:00,
2013-03-28 14:37:00,70.7,62.4,30.04,SSE,157,6.3,-999.0,75,-99.99,,,0.00,Acu-Link.com,2013-03-28 19:37:00,
2013-03-28 14:52:00,70.7,61.6,30.02,South,180,7.4,-999.0,73,-99.99,,,0.00,Acu-Link.com,2013-03-28 19:52:00,
2013-03-28 15:07:00,72.1,61.4,30.02,SSE,157,8.3,-999.0,69,-99.99,,,0.00,Acu-Link.com,2013-03-28 20:07:00,
2013-03-28 15:22:00,72.9,60.8,30.02,SSE,157,8.3,-999.0,66,-99.99,,,0.00,Acu-Link.com,2013-03-28 20:22:00,
2013-03-28 15:37:00,76.6,61.2,30.00,SSE,157,6.3,-999.0,59,-99.99,,,0.00,Acu-Link.com,2013-03-28 20:37:00,
2013-03-28 15:53:00,76.6,61.2,30.00,South,180,7.8,-999.0,59,-99.99,,,0.00,Acu-Link.com,2013-03-28 20:53:00,
2013-03-28 16:08:00,76.5,62.0,30.00,ESE,112,4.3,-999.0,61,-99.99,,,0.00,Acu-Link.com,2013-03-28 21:08:00,
2013-03-28 16:23:00,77.0,61.6,29.99,South,180,6.7,-999.0,59,-99.99,,,0.00,Acu-Link.com,2013-03-28 21:23:00,
2013-03-28 16:38:00,73.9,61.0,29.99,South,180,5.8,-999.0,64,-99.99,,,0.00,Acu-Link.com,2013-03-28 21:38:00,
2013-03-28 16:53:00,74.3,61.3,29.98,SSE,157,8.3,-999.0,64,-99.99,,,0.00,Acu-Link.com,2013-03-28 21:53:00,
2013-03-28 17:09:00,73.9,61.0,29.98,ESE,112,10.3,-999.0,64,-99.99,,,0.00,Acu-Link.com,2013-03-28 22:09:00,
2013-03-28 17:24:00,74.5,61.5,29.98,SSW,202,6.7,-999.0,64,-99.99,,,0.00,Acu-Link.com,2013-03-28 22:24:00,
2013-03-28 17:39:00,75.2,61.3,29.97,SE,135,9.8,-999.0,62,-99.99,,,0.00,Acu-Link.com,2013-03-28 22:39:00,
2013-03-28 17:54:00,73.9,61.4,29.97,ENE,67,11.9,-999.0,65,-99.99,,,0.00,Acu-Link.com,2013-03-28 22:54:00,
2013-03-28 18:09:00,73.0,61.8,29.98,South,180,15.4,-999.0,68,-99.99,,,0.00,Acu-Link.com,2013-03-28 23:09:00,
2013-03-28 18:25:00,73.9,62.3,29.97,East,90,4.7,-999.0,67,-99.99,,,0.00,Acu-Link.com,2013-03-28 23:25:00,
2013-03-28 18:40:00,72.1,62.6,29.97,SE,135,8.3,-999.0,72,-99.99,,,0.00,Acu-Link.com,2013-03-28 23:40:00,
2013-03-28 18:55:00,72.3,62.0,29.98,South,180,9.8,-999.0,70,-99.99,,,0.00,Acu-Link.com,2013-03-28 23:55:00,
2013-03-28 19:10:00,72.0,62.0,29.98,South,180,8.9,-999.0,71,-99.99,,,0.00,Acu-Link.com,2013-03-29 00:10:00,
2013-03-28 19:26:00,71.1,62.3,29.98,ESE,112,6.7,-999.0,74,-99.99,,,0.00,Acu-Link.com,2013-03-29 00:26:00,
2013-03-28 19:56:00,68.5,62.5,29.99,SSE,157,10.3,-999.0,81,-99.99,,,0.00,Acu-Link.com,2013-03-29 00:56:00,
2013-03-28 20:11:00,68.0,63.0,29.99,South,180,6.3,-999.0,84,-99.99,,,0.00,Acu-Link.com,2013-03-29 01:11:00,
2013-03-28 20:26:00,67.3,63.3,30.00,South,180,7.8,-999.0,87,-99.99,,,0.00,Acu-Link.com,2013-03-29 01:26:00,
2013-03-28 20:42:00,66.4,63.7,30.00,SE,135,4.7,-999.0,91,-99.99,,,0.00,Acu-Link.com,2013-03-29 01:42:00,
2013-03-28 20:57:00,65.7,64.2,30.00,South,180,5.1,-999.0,95,-99.99,,,0.00,Acu-Link.com,2013-03-29 01:57:00,
2013-03-28 21:12:00,64.9,64.4,30.01,ESE,112,6.7,-999.0,98,-99.99,,,0.00,Acu-Link.com,2013-03-29 02:12:00,
2013-03-28 21:27:00,64.4,63.8,30.01,South,180,8.9,-999.0,98,-99.99,,,0.00,Acu-Link.com,2013-03-29 02:27:00,
2013-03-28 21:42:00,64.0,63.5,30.02,South,180,5.1,-999.0,98,-99.99,,,0.00,Acu-Link.com,2013-03-29 02:42:00,
2013-03-28 21:58:00,63.5,62.9,30.03,SSE,157,6.7,-999.0,98,-99.99,,,0.00,Acu-Link.com,2013-03-29 02:58:00,
2013-03-28 22:13:00,63.5,62.9,30.03,South,180,8.3,-999.0,98,-99.99,,,0.00,Acu-Link.com,2013-03-29 03:13:00,
2013-03-28 22:28:00,63.0,62.4,30.03,South,180,6.3,-999.0,98,-99.99,,,0.00,Acu-Link.com,2013-03-29 03:28:00,
2013-03-28 22:43:00,62.6,62.0,30.04,South,180,3.8,-999.0,98,-99.99,,,0.00,Acu-Link.com,2013-03-29 03:43:00,
2013-03-28 22:58:00,62.1,61.5,30.04,ESE,112,3.8,-999.0,98,-99.99,,,0.00,Acu-Link.com,2013-03-29 03:58:00,
2013-03-28 23:14:00,61.9,61.3,30.05,SSW,202,4.7,-999.0,98,-99.99,,,0.00,Acu-Link.com,2013-03-29 04:14:00,
2013-03-28 23:29:00,61.9,61.3,30.05,ESE,112,4.3,-999.0,98,-99.99,,,0.00,Acu-Link.com,2013-03-29 04:29:00,
2013-03-28 23:44:00,61.7,61.1,30.05,SSW,202,2.2,-999.0,98,-99.99,,,0.00,Acu-Link.com,2013-03-29 04:44:00,
2013-03-28 23:59:00,61.5,60.9,30.05,SSE,157,2.7,-999.0,98,-99.99,,,0.00,Acu-Link.com,2013-03-29 04:59:00,